Time,TemperatureF,DewpointF,PressureIn,WindDirection,WindDirectionDegrees,WindSpeedMPH,WindSpeedGustMPH,Humidity,HourlyPrecipIn,Conditions,Clouds,dailyrainin,SoftwareType,DateUTC
2013-06-19 00:01:00,51.5,50.4,29.94,North,0,0.0,0.0,96,0.00,RA,,0.00,WeatherDisplay:10.37,2013-06-19 04:01:00,
2013-06-19 00:03:00,51.4,50.3,29.94,North,0,0.0,0.0,96,0.00,OVC,,0.00,WeatherDisplay:10.37,2013-06-19 04:03:00,
2013-06-19 00:08:00,51.9,50.8,29.94,North,0,0.0,0.0,96,0.00,OVC,,0.00,WeatherDisplay:10.37,2013-06-19 04:08:00,
2013-06-19 00:13:00,51.6,51.6,29.94,North,0,0.0,0.0,100,0.00,OVC,,0.00,WeatherDisplay:10.37,2013-06-19 04:13:00,
2013-06-19 00:18:00,51.7,51.7,29.94,North,0,0.0,0.0,100,0.00,OVC,,0.00,WeatherDisplay:10.37,2013-06-19 04:18:00,
2013-06-19 00:23:00,51.6,51.6,29.94,North,0,0.0,0.0,100,0.00,OVC,,0.00,WeatherDisplay:10.37,2013-06-19 04:23:00,
2013-06-19 00:28:00,51.5,51.5,29.94,North,0,0.0,0.0,100,0.00,OVC,,0.00,WeatherDisplay:10.37,2013-06-19 04:28:00,
2013-06-19 00:33:00,51.2,51.2,29.94,North,0,0.0,0.0,100,0.00,OVC,,0.00,WeatherDisplay:10.37,2013-06-19 04:33:00,
2013-06-19 00:38:00,51.0,51.0,29.94,North,0,0.0,0.0,100,0.00,OVC,,0.00,WeatherDisplay:10.37,2013-06-19 04:38:00,
2013-06-19 00:43:00,51.1,51.1,29.94,North,0,0.0,0.0,100,0.00,OVC,,0.00,WeatherDisplay:10.37,2013-06-19 04:43:00,
2013-06-19 00:48:00,51.0,51.0,29.94,North,0,0.0,0.0,100,0.00,OVC,,0.00,WeatherDisplay:10.37,2013-06-19 04:48:00,
2013-06-19 00:53:00,50.9,50.9,29.94,North,0,0.0,0.0,100,0.00,OVC,,0.00,WeatherDisplay:10.37,2013-06-19 04:53:00,
2013-06-19 00:58:00,50.8,50.8,29.94,North,0,0.0,0.0,100,0.00,OVC,,0.00,WeatherDisplay:10.37,2013-06-19 04:58:00,
2013-06-19 01:03:00,50.8,50.8,29.94,North,0,0.0,0.0,100,0.00,OVC,,0.00,WeatherDisplay:10.37,2013-06-19 05:03:00,
2013-06-19 01:08:00,50.9,50.9,29.94,North,0,0.0,0.0,100,0.00,OVC,,0.00,WeatherDisplay:10.37,2013-06-19 05:08:00,
2013-06-19 01:13:00,51.1,50.0,29.94,North,0,0.0,0.0,96,0.00,OVC,,0.00,WeatherDisplay:10.37,2013-06-19 05:13:00,
2013-06-19 01:18:00,50.6,49.5,29.94,North,0,0.0,0.0,96,0.00,OVC,,0.00,WeatherDisplay:10.37,2013-06-19 05:18:00,
2013-06-19 01:23:00,50.8,49.7,29.94,North,0,0.0,0.0,96,0.00,OVC,,0.00,WeatherDisplay:10.37,2013-06-19 05:23:00,
2013-06-19 01:28:00,50.7,49.6,29.94,North,0,0.0,0.0,96,0.00,OVC,,0.00,WeatherDisplay:10.37,2013-06-19 05:28:00,
2013-06-19 01:33:00,50.6,49.5,29.94,North,0,0.0,0.0,96,0.00,OVC,,0.00,WeatherDisplay:10.37,2013-06-19 05:33:00,
2013-06-19 01:38:00,50.5,49.4,29.94,North,0,0.0,0.0,96,0.00,OVC,,0.00,WeatherDisplay:10.37,2013-06-19 05:38:00,
2013-06-19 01:43:00,50.5,49.4,29.94,North,0,0.0,0.0,96,0.00,OVC,,0.00,WeatherDisplay:10.37,2013-06-19 05:43:00,
2013-06-19 01:48:00,50.3,49.2,29.94,North,0,0.0,0.0,96,0.00,OVC,,0.00,WeatherDisplay:10.37,2013-06-19 05:48:00,
2013-06-19 01:53:00,50.0,48.9,29.94,North,0,0.0,0.0,96,0.00,OVC,,0.00,WeatherDisplay:10.37,2013-06-19 05:53:00,
2013-06-19 01:58:00,50.0,48.9,29.94,North,0,0.0,0.0,96,0.00,OVC,,0.00,WeatherDisplay:10.37,2013-06-19 05:58:00,
2013-06-19 02:03:00,49.8,49.8,29.94,North,0,0.0,0.0,100,0.00,SCT,,0.00,WeatherDisplay:10.37,2013-06-19 06:03:00,
2013-06-19 02:08:00,49.6,49.6,29.94,North,0,0.0,0.0,100,0.00,SCT,,0.00,WeatherDisplay:10.37,2013-06-19 06:08:00,
2013-06-19 02:13:00,49.7,49.7,29.94,North,0,0.0,0.0,100,0.00,SCT,,0.00,WeatherDisplay:10.37,2013-06-19 06:13:00,
2013-06-19 02:18:00,49.5,49.5,29.94,North,0,0.0,0.0,100,0.00,SCT,,0.00,WeatherDisplay:10.37,2013-06-19 06:18:00,
2013-06-19 02:23:00,49.3,49.3,29.93,North,0,0.0,0.0,100,0.00,BKN,,0.00,WeatherDisplay:10.37,2013-06-19 06:23:00,
2013-06-19 02:28:00,49.2,49.2,29.93,North,0,0.0,0.0,100,0.00,BKN,,0.00,WeatherDisplay:10.37,2013-06-19 06:28:00,
2013-06-19 02:33:00,49.4,49.4,29.93,North,0,0.0,0.0,100,0.00,BKN,,0.00,WeatherDisplay:10.37,2013-06-19 06:33:00,
2013-06-19 02:38:00,49.5,49.5,29.93,North,0,0.0,0.0,100,0.00,BKN,,0.00,WeatherDisplay:10.37,2013-06-19 06:38:00,
2013-06-19 02:43:00,49.3,49.3,29.93,North,0,0.0,0.0,100,0.00,BKN,,0.00,WeatherDisplay:10.37,2013-06-19 06:43:00,
2013-06-19 02:48:00,48.9,48.9,29.93,North,0,0.0,0.0,100,0.00,BKN,,0.00,WeatherDisplay:10.37,2013-06-19 06:48:00,
2013-06-19 02:53:00,48.7,48.7,29.94,North,0,0.0,0.0,100,0.00,OVC,,0.00,WeatherDisplay:10.37,2013-06-19 06:53:00,
2013-06-19 02:58:00,49.0,49.0,29.94,North,0,0.0,0.0,100,0.00,OVC,,0.00,WeatherDisplay:10.37,2013-06-19 06:58:00,
2013-06-19 03:03:00,48.9,48.9,29.94,North,0,0.0,0.0,100,0.00,OVC,,0.00,WeatherDisplay:10.37,2013-06-19 07:03:00,
2013-06-19 03:08:00,48.9,48.9,29.94,North,0,0.0,0.0,100,0.00,OVC,,0.00,WeatherDisplay:10.37,2013-06-19 07:08:00,
2013-06-19 03:13:00,49.1,49.1,29.94,North,0,0.0,0.0,100,0.00,OVC,,0.00,WeatherDisplay:10.37,2013-06-19 07:13:00,
2013-06-19 03:18:00,48.8,48.8,29.94,North,0,0.0,0.0,100,0.00,OVC,,0.00,WeatherDisplay:10.37,2013-06-19 07:18:00,
2013-06-19 03:23:00,48.8,48.8,29.94,North,0,0.0,0.0,100,0.00,OVC,,0.00,WeatherDisplay:10.37,2013-06-19 07:23:00,
2013-06-19 03:28:00,48.9,48.9,29.94,North,0,0.0,0.0,100,0.00,OVC,,0.00,WeatherDisplay:10.37,2013-06-19 07:28:00,
2013-06-19 03:33:00,48.7,48.7,29.94,North,0,0.0,0.0,100,0.00,OVC,,0.00,WeatherDisplay:10.37,2013-06-19 07:33:00,
2013-06-19 03:38:00,48.5,48.5,29.94,North,0,0.0,0.0,100,0.00,OVC,,0.00,WeatherDisplay:10.37,2013-06-19 07:38:00,
2013-06-19 03:43:00,48.1,48.1,29.94,North,0,0.0,0.0,100,0.00,OVC,,0.00,WeatherDisplay:10.37,2013-06-19 07:43:00,
2013-06-19 03:48:00,48.0,48.0,29.94,North,0,0.0,0.0,100,0.00,OVC,,0.00,WeatherDisplay:10.37,2013-06-19 07:48:00,
2013-06-19 03:53:00,48.2,48.2,29.94,North,0,0.0,0.0,100,0.00,OVC,,0.00,WeatherDisplay:10.37,2013-06-19 07:53:00,
2013-06-19 03:58:00,47.9,47.9,29.94,North,0,0.0,0.0,100,0.00,OVC,,0.00,WeatherDisplay:10.37,2013-06-19 07:58:00,
2013-06-19 04:03:00,47.6,47.6,29.95,North,0,0.0,0.0,100,0.00,CLR,,0.00,WeatherDisplay:10.37,2013-06-19 08:03:00,
2013-06-19 04:08:00,47.5,47.5,29.95,North,0,0.0,0.0,100,0.00,CLR,,0.00,WeatherDisplay:10.37,2013-06-19 08:08:00,
2013-06-19 04:13:00,47.4,47.4,29.95,North,0,0.0,0.0,100,0.00,CLR,,0.00,WeatherDisplay:10.37,2013-06-19 08:13:00,
2013-06-19 04:18:00,47.2,47.2,29.95,North,0,0.0,0.0,100,0.00,CLR,,0.00,WeatherDisplay:10.37,2013-06-19 08:18:00,
2013-06-19 04:23:00,47.0,47.0,29.95,North,0,0.0,0.0,100,0.00,CLR,,0.00,WeatherDisplay:10.37,2013-06-19 08:23:00,
2013-06-19 04:28:00,46.9,46.9,29.95,North,0,0.0,0.0,100,0.00,CLR,,0.00,WeatherDisplay:10.37,2013-06-19 08:28:00,
2013-06-19 04:33:00,47.0,47.0,29.95,North,0,0.0,0.0,100,0.00,CLR,,0.00,WeatherDisplay:10.37,2013-06-19 08:33:00,
2013-06-19 04:38:00,46.9,46.9,29.95,North,0,0.0,0.0,100,0.00,CLR,,0.00,WeatherDisplay:10.37,2013-06-19 08:38:00,
2013-06-19 04:43:00,46.8,46.8,29.95,North,0,0.0,0.0,100,0.00,CLR,,0.00,WeatherDisplay:10.37,2013-06-19 08:43:00,
2013-06-19 04:48:00,46.5,46.5,29.95,North,0,0.0,0.0,100,0.00,,,0.00,WeatherDisplay:10.37,2013-06-19 08:48:00,
2013-06-19 04:53:00,46.3,46.3,29.95,North,0,0.0,0.0,100,0.00,,,0.00,WeatherDisplay:10.37,2013-06-19 08:53:00,
2013-06-19 04:58:00,46.3,46.3,29.95,North,0,0.0,0.0,100,0.00,,,0.00,WeatherDisplay:10.37,2013-06-19 08:58:00,
2013-06-19 05:03:00,46.3,46.3,29.95,North,0,0.0,0.0,100,0.00,,,0.00,WeatherDisplay:10.37,2013-06-19 09:03:00,
2013-06-19 05:08:00,46.2,46.2,29.95,North,0,0.0,0.0,100,0.00,,,0.00,WeatherDisplay:10.37,2013-06-19 09:08:00,
2013-06-19 05:13:00,46.3,46.3,29.95,North,0,0.0,0.0,100,0.00,,,0.00,WeatherDisplay:10.37,2013-06-19 09:13:00,
2013-06-19 05:18:00,45.9,45.9,29.95,North,0,0.0,0.0,100,0.00,,,0.00,WeatherDisplay:10.37,2013-06-19 09:18:00,
2013-06-19 05:23:00,45.7,45.7,29.95,North,0,0.0,0.0,100,0.00,,,0.00,WeatherDisplay:10.37,2013-06-19 09:23:00,
2013-06-19 05:28:00,45.6,45.6,29.95,North,0,0.0,0.0,100,0.00,,,0.00,WeatherDisplay:10.37,2013-06-19 09:28:00,
2013-06-19 05:33:00,45.3,45.3,29.95,North,0,0.0,0.0,100,0.00,,,0.00,WeatherDisplay:10.37,2013-06-19 09:33:00,
2013-06-19 05:38:00,45.3,45.3,29.95,North,0,0.0,0.0,100,0.00,,,0.00,WeatherDisplay:10.37,2013-06-19 09:38:00,
2013-06-19 05:43:00,45.3,45.3,29.97,North,0,0.0,0.0,100,0.00,,,0.00,WeatherDisplay:10.37,2013-06-19 09:43:00,
2013-06-19 05:48:00,45.2,45.2,29.97,North,0,0.0,0.0,100,0.00,,,0.00,WeatherDisplay:10.37,2013-06-19 09:48:00,
2013-06-19 05:53:00,45.2,45.2,29.97,North,0,0.0,0.0,100,0.00,,,0.00,WeatherDisplay:10.37,2013-06-19 09:53:00,
2013-06-19 05:58:00,45.1,45.1,29.97,North,0,0.0,0.0,100,0.00,,,0.00,WeatherDisplay:10.37,2013-06-19 09:58:00,
2013-06-19 06:03:00,45.5,45.5,29.97,North,0,0.0,0.0,100,0.00,FEW,,0.00,WeatherDisplay:10.37,2013-06-19 10:03:00,
2013-06-19 06:08:00,45.6,45.6,29.97,North,0,0.0,0.0,100,0.00,FEW,,0.00,WeatherDisplay:10.37,2013-06-19 10:08:00,
2013-06-19 06:13:00,45.8,45.8,29.97,North,0,0.0,0.0,100,0.00,FEW,,0.00,WeatherDisplay:10.37,2013-06-19 10:13:00,
2013-06-19 06:18:00,45.9,45.9,29.97,North,0,0.0,0.0,100,0.00,FEW,,0.00,WeatherDisplay:10.37,2013-06-19 10:18:00,
2013-06-19 06:23:00,46.1,46.1,29.97,North,0,0.0,0.0,100,0.00,FEW,,0.00,WeatherDisplay:10.37,2013-06-19 10:23:00,
2013-06-19 06:28:00,46.2,46.2,29.97,North,0,0.0,0.0,100,0.00,FEW,,0.00,WeatherDisplay:10.37,2013-06-19 10:28:00,
2013-06-19 06:33:00,46.1,46.1,29.97,North,0,0.0,0.0,100,0.00,FEW,,0.00,WeatherDisplay:10.37,2013-06-19 10:33:00,
2013-06-19 06:38:00,46.3,46.3,29.97,North,0,0.0,0.0,100,0.00,FEW,,0.00,WeatherDisplay:10.37,2013-06-19 10:38:00,
2013-06-19 06:43:00,47.0,47.0,29.97,North,0,0.0,0.0,100,0.00,FEW,,0.00,WeatherDisplay:10.37,2013-06-19 10:43:00,
2013-06-19 06:48:00,47.6,47.6,29.97,North,0,0.0,0.0,100,0.00,FEW,,0.00,WeatherDisplay:10.37,2013-06-19 10:48:00,
2013-06-19 06:53:00,48.1,48.1,29.97,North,0,0.0,0.0,100,0.00,FEW,,0.00,WeatherDisplay:10.37,2013-06-19 10:53:00,
2013-06-19 06:58:00,48.3,48.3,29.97,North,0,0.0,0.0,100,0.00,FEW,,0.00,WeatherDisplay:10.37,2013-06-19 10:58:00,
2013-06-19 07:03:00,48.6,47.5,29.98,North,0,0.0,0.0,96,0.00,CLR,,0.00,WeatherDisplay:10.37,2013-06-19 11:03:00,
2013-06-19 07:08:00,49.0,47.9,29.98,North,0,0.0,0.0,96,0.00,CLR,,0.00,WeatherDisplay:10.37,2013-06-19 11:08:00,
2013-06-19 07:13:00,49.4,48.3,29.98,North,0,0.0,0.0,96,0.00,CLR,,0.00,WeatherDisplay:10.37,2013-06-19 11:13:00,
2013-06-19 07:18:00,49.8,48.7,29.98,North,0,0.0,0.0,96,0.00,CLR,,0.00,WeatherDisplay:10.37,2013-06-19 11:18:00,
2013-06-19 07:23:00,50.0,48.9,29.98,North,0,0.0,0.0,96,0.00,CLR,,0.00,WeatherDisplay:10.37,2013-06-19 11:23:00,
2013-06-19 07:28:00,50.5,49.4,29.98,North,0,0.0,0.0,96,0.00,CLR,,0.00,WeatherDisplay:10.37,2013-06-19 11:28:00,
2013-06-19 07:33:00,50.8,49.7,29.98,North,0,0.0,0.0,96,0.00,CLR,,0.00,WeatherDisplay:10.37,2013-06-19 11:33:00,
2013-06-19 07:38:00,51.6,50.5,29.98,North,0,0.0,0.0,96,0.00,CLR,,0.00,WeatherDisplay:10.37,2013-06-19 11:38:00,
2013-06-19 07:43:00,52.0,50.9,29.98,North,0,0.0,0.0,96,0.00,CLR,,0.00,WeatherDisplay:10.37,2013-06-19 11:43:00,
2013-06-19 07:48:00,52.1,51.0,29.98,North,0,0.0,0.0,96,0.00,CLR,,0.00,WeatherDisplay:10.37,2013-06-19 11:48:00,
2013-06-19 07:53:00,52.6,51.5,29.98,North,0,0.0,0.0,96,0.00,CLR,,0.00,WeatherDisplay:10.37,2013-06-19 11:53:00,
2013-06-19 07:58:00,53.1,52.0,29.98,North,0,0.0,0.0,96,0.00,CLR,,0.00,WeatherDisplay:10.37,2013-06-19 11:58:00,
2013-06-19 08:03:00,53.7,46.7,30.00,North,0,0.0,0.0,77,0.00,CLR,,0.00,WeatherDisplay:10.37,2013-06-19 12:03:00,
2013-06-19 08:08:00,53.7,46.7,30.00,North,0,0.0,0.0,77,0.00,CLR,,0.00,WeatherDisplay:10.37,2013-06-19 12:08:00,
2013-06-19 08:13:00,54.1,47.0,30.00,North,0,0.0,0.0,77,0.00,CLR,,0.00,WeatherDisplay:10.37,2013-06-19 12:13:00,
2013-06-19 08:18:00,54.5,47.4,30.00,North,0,2.3,2.3,77,0.00,CLR,,0.00,WeatherDisplay:10.37,2013-06-19 12:18:00,
2013-06-19 08:23:00,54.9,47.8,30.00,North,0,1.1,1.1,77,0.00,CLR,,0.00,WeatherDisplay:10.37,2013-06-19 12:23:00,
2013-06-19 08:28:00,55.3,48.2,30.00,North,0,1.1,0.0,77,0.00,CLR,,0.00,WeatherDisplay:10.37,2013-06-19 12:28:00,
2013-06-19 08:33:00,55.8,48.7,30.00,North,0,0.0,0.0,77,0.00,CLR,,0.00,WeatherDisplay:10.37,2013-06-19 12:33:00,
2013-06-19 08:38:00,56.3,49.2,30.00,North,0,1.1,1.1,77,0.00,CLR,,0.00,WeatherDisplay:10.37,2013-06-19 12:38:00,
2013-06-19 08:43:00,56.6,49.5,30.00,North,0,1.1,1.1,77,0.00,CLR,,0.00,WeatherDisplay:10.37,2013-06-19 12:43:00,
2013-06-19 08:48:00,57.4,50.2,30.00,North,0,1.1,1.1,77,0.00,CLR,,0.00,WeatherDisplay:10.37,2013-06-19 12:48:00,
2013-06-19 08:53:00,57.4,50.2,30.00,North,0,1.1,1.1,77,0.00,CLR,,0.00,WeatherDisplay:10.37,2013-06-19 12:53:00,
2013-06-19 08:58:00,57.9,50.7,30.00,North,0,1.1,1.1,77,0.00,CLR,,0.00,WeatherDisplay:10.37,2013-06-19 12:58:00,
2013-06-19 09:03:00,58.5,47.6,30.01,North,0,1.1,1.1,67,0.00,CLR,,0.00,WeatherDisplay:10.37,2013-06-19 13:03:00,
2013-06-19 09:08:00,58.9,48.0,30.01,North,0,1.1,1.1,67,0.00,CLR,,0.00,WeatherDisplay:10.37,2013-06-19 13:08:00,
2013-06-19 09:13:00,59.4,48.4,30.01,North,0,1.1,1.1,67,0.00,CLR,,0.00,WeatherDisplay:10.37,2013-06-19 13:13:00,
2013-06-19 09:18:00,59.4,48.4,30.01,North,0,1.1,0.0,67,0.00,CLR,,0.00,WeatherDisplay:10.37,2013-06-19 13:18:00,
2013-06-19 09:23:00,59.8,48.8,30.01,North,0,1.1,1.1,67,0.00,CLR,,0.00,WeatherDisplay:10.37,2013-06-19 13:23:00,
2013-06-19 09:28:00,60.2,49.2,30.01,North,0,2.0,2.0,67,0.00,CLR,,0.00,WeatherDisplay:10.37,2013-06-19 13:28:00,
2013-06-19 09:33:00,60.3,49.3,30.01,North,0,1.1,0.0,67,0.00,CLR,,0.00,WeatherDisplay:10.37,2013-06-19 13:33:00,
2013-06-19 09:38:00,60.7,49.7,30.01,North,0,1.1,1.1,67,0.00,CLR,,0.00,WeatherDisplay:10.37,2013-06-19 13:38:00,
2013-06-19 09:43:00,60.9,49.9,30.01,North,0,1.1,1.1,67,0.00,CLR,,0.00,WeatherDisplay:10.37,2013-06-19 13:43:00,
2013-06-19 09:48:00,61.7,50.6,30.01,North,0,1.1,0.0,67,0.00,CLR,,0.00,WeatherDisplay:10.37,2013-06-19 13:48:00,
2013-06-19 09:53:00,62.1,51.0,30.01,North,0,0.0,0.0,67,0.00,CLR,,0.00,WeatherDisplay:10.37,2013-06-19 13:53:00,
2013-06-19 09:58:00,61.8,50.7,30.01,North,0,0.0,0.0,67,0.00,CLR,,0.00,WeatherDisplay:10.37,2013-06-19 13:58:00,
2013-06-19 10:03:00,62.7,47.7,30.01,North,0,0.0,0.0,58,0.00,CLR,,0.00,WeatherDisplay:10.37,2013-06-19 14:03:00,
2013-06-19 10:08:00,61.9,47.0,30.01,North,0,0.0,0.0,58,0.00,CLR,,0.00,WeatherDisplay:10.37,2013-06-19 14:08:00,
2013-06-19 10:13:00,63.0,48.0,30.01,North,0,0.0,0.0,58,0.00,CLR,,0.00,WeatherDisplay:10.37,2013-06-19 14:13:00,
2013-06-19 10:18:00,64.0,48.9,30.01,North,0,0.0,0.0,58,0.00,CLR,,0.00,WeatherDisplay:10.37,2013-06-19 14:18:00,
2013-06-19 10:23:00,64.2,49.1,30.01,North,0,0.0,0.0,58,0.00,CLR,,0.00,WeatherDisplay:10.37,2013-06-19 14:23:00,
2013-06-19 10:28:00,64.4,49.3,30.01,North,0,0.0,0.0,58,0.00,CLR,,0.00,WeatherDisplay:10.37,2013-06-19 14:28:00,
2013-06-19 10:33:00,65.0,49.9,30.01,North,0,0.0,0.0,58,0.00,CLR,,0.00,WeatherDisplay:10.37,2013-06-19 14:33:00,
2013-06-19 10:38:00,65.1,50.0,30.01,North,0,0.0,0.0,58,0.00,CLR,,0.00,WeatherDisplay:10.37,2013-06-19 14:38:00,
2013-06-19 10:43:00,65.3,50.1,30.01,North,0,0.0,0.0,58,0.00,CLR,,0.00,WeatherDisplay:10.37,2013-06-19 14:43:00,
2013-06-19 10:48:00,64.5,49.4,30.01,North,0,0.0,0.0,58,0.00,CLR,,0.00,WeatherDisplay:10.37,2013-06-19 14:48:00,
2013-06-19 10:53:00,62.2,47.2,30.01,North,0,0.0,0.0,58,0.00,CLR,,0.00,WeatherDisplay:10.37,2013-06-19 14:53:00,
2013-06-19 10:58:00,64.9,49.8,30.01,North,0,0.0,0.0,58,0.00,CLR,,0.00,WeatherDisplay:10.37,2013-06-19 14:58:00,
2013-06-19 11:03:00,65.5,47.4,30.02,ENE,57,2.3,2.3,52,0.00,FEW,,0.00,WeatherDisplay:10.37,2013-06-19 15:03:00,
2013-06-19 11:08:00,66.1,48.0,30.02,NE,55,3.5,3.5,52,0.00,FEW,,0.00,WeatherDisplay:10.37,2013-06-19 15:08:00,
2013-06-19 11:13:00,66.3,48.1,30.02,ENE,57,3.5,3.5,52,0.00,FEW,,0.00,WeatherDisplay:10.37,2013-06-19 15:13:00,
2013-06-19 11:18:00,66.1,48.0,30.02,NE,56,2.3,2.3,52,0.00,FEW,,0.00,WeatherDisplay:10.37,2013-06-19 15:18:00,
2013-06-19 11:23:00,66.7,48.5,30.02,ENE,57,1.1,1.1,52,0.00,FEW,,0.00,WeatherDisplay:10.37,2013-06-19 15:23:00,
2013-06-19 11:28:00,63.4,45.5,30.02,ENE,57,2.3,2.3,52,0.00,FEW,,0.00,WeatherDisplay:10.37,2013-06-19 15:28:00,
2013-06-19 11:33:00,63.2,45.3,30.02,ENE,57,1.1,1.1,52,0.00,FEW,,0.00,WeatherDisplay:10.37,2013-06-19 15:33:00,
2013-06-19 11:38:00,64.5,46.5,30.02,ENE,57,1.1,1.1,52,0.00,FEW,,0.00,WeatherDisplay:10.37,2013-06-19 15:38:00,
2013-06-19 11:43:00,65.6,47.5,30.02,ENE,57,1.1,0.0,52,0.00,FEW,,0.00,WeatherDisplay:10.37,2013-06-19 15:43:00,
2013-06-19 11:48:00,67.3,49.1,30.02,ENE,57,2.3,2.3,52,0.00,FEW,,0.00,WeatherDisplay:10.37,2013-06-19 15:48:00,
2013-06-19 11:53:00,67.0,48.8,30.02,ENE,57,1.1,0.0,52,0.00,FEW,,0.00,WeatherDisplay:10.37,2013-06-19 15:53:00,
2013-06-19 11:58:00,66.6,48.4,30.02,ENE,57,1.1,1.1,52,0.00,FEW,,0.00,WeatherDisplay:10.37,2013-06-19 15:58:00,
2013-06-19 12:03:00,68.0,45.9,30.02,ENE,57,2.3,2.3,45,0.00,BKN,,0.00,WeatherDisplay:10.37,2013-06-19 16:03:00,
2013-06-19 12:08:00,65.1,43.2,30.02,ENE,57,1.1,1.1,45,0.00,BKN,,0.00,WeatherDisplay:10.37,2013-06-19 16:08:00,
2013-06-19 12:13:00,63.4,41.7,30.02,ENE,57,2.3,2.3,45,0.00,BKN,,0.00,WeatherDisplay:10.37,2013-06-19 16:13:00,
2013-06-19 12:18:00,63.4,41.7,30.02,ENE,57,1.1,1.1,45,0.00,BKN,,0.00,WeatherDisplay:10.37,2013-06-19 16:18:00,
2013-06-19 12:23:00,68.2,46.0,30.02,East,84,3.5,3.5,45,0.00,BKN,,0.00,WeatherDisplay:10.37,2013-06-19 16:23:00,
2013-06-19 12:28:00,67.4,45.3,30.02,East,84,1.1,1.1,45,0.00,BKN,,0.00,WeatherDisplay:10.37,2013-06-19 16:28:00,
2013-06-19 12:33:00,69.2,46.9,30.02,East,91,2.3,2.3,45,0.00,BKN,,0.00,WeatherDisplay:10.37,2013-06-19 16:33:00,
2013-06-19 12:38:00,67.3,45.2,30.02,East,91,2.3,2.3,45,0.00,BKN,,0.00,WeatherDisplay:10.37,2013-06-19 16:38:00,
2013-06-19 12:43:00,64.8,42.9,30.02,East,90,2.3,2.3,45,0.00,BKN,,0.00,WeatherDisplay:10.37,2013-06-19 16:43:00,
2013-06-19 12:48:00,64.2,42.4,30.02,East,90,3.5,3.5,45,0.00,BKN,,0.00,WeatherDisplay:10.37,2013-06-19 16:48:00,
2013-06-19 12:53:00,64.3,42.5,30.02,East,90,1.1,1.1,45,0.00,BKN,,0.00,WeatherDisplay:10.37,2013-06-19 16:53:00,
2013-06-19 12:58:00,65.5,43.6,30.02,East,90,1.1,0.0,45,0.00,BKN,,0.00,WeatherDisplay:10.37,2013-06-19 16:58:00,
2013-06-19 13:03:00,68.0,39.3,30.02,East,90,1.1,0.0,35,0.00,CLR,,0.00,WeatherDisplay:10.37,2013-06-19 17:03:00,
2013-06-19 13:08:00,65.0,36.7,30.02,East,91,1.0,1.0,35,0.00,CLR,,0.00,WeatherDisplay:10.37,2013-06-19 17:08:00,
2013-06-19 13:13:00,67.9,39.2,30.02,East,90,3.5,3.5,35,0.00,CLR,,0.00,WeatherDisplay:10.37,2013-06-19 17:13:00,
2013-06-19 13:18:00,68.8,40.0,30.02,East,83,1.1,1.1,35,0.00,CLR,,0.00,WeatherDisplay:10.37,2013-06-19 17:18:00,
2013-06-19 13:23:00,69.0,40.2,30.02,East,83,2.3,2.3,35,0.00,CLR,,0.00,WeatherDisplay:10.37,2013-06-19 17:23:00,
2013-06-19 13:28:00,68.7,39.9,30.02,East,83,2.0,2.0,35,0.00,CLR,,0.00,WeatherDisplay:10.37,2013-06-19 17:28:00,
2013-06-19 13:33:00,66.6,38.1,30.02,East,83,2.3,2.3,35,0.00,CLR,,0.00,WeatherDisplay:10.37,2013-06-19 17:33:00,
2013-06-19 13:38:00,68.2,39.5,30.02,North,358,4.0,4.0,35,0.00,CLR,,0.00,WeatherDisplay:10.37,2013-06-19 17:38:00,
2013-06-19 13:43:00,67.3,38.7,30.02,North,354,3.5,3.5,35,0.00,CLR,,0.00,WeatherDisplay:10.37,2013-06-19 17:43:00,
2013-06-19 13:48:00,67.9,39.2,30.02,North,351,3.5,3.5,35,0.00,CLR,,0.00,WeatherDisplay:10.37,2013-06-19 17:48:00,
2013-06-19 13:53:00,68.1,39.4,30.02,NNW,347,3.5,3.5,35,0.00,CLR,,0.00,WeatherDisplay:10.37,2013-06-19 17:53:00,
2013-06-19 13:58:00,65.6,37.2,30.02,NNW,347,2.3,2.3,35,0.00,CLR,,0.00,WeatherDisplay:10.37,2013-06-19 17:58:00,
2013-06-19 14:03:00,66.8,35.2,30.02,NNW,347,2.3,2.3,31,0.00,CLR,,0.00,WeatherDisplay:10.37,2013-06-19 18:03:00,
2013-06-19 14:08:00,69.0,37.1,30.02,NNW,347,3.5,3.5,31,0.00,CLR,,0.00,WeatherDisplay:10.37,2013-06-19 18:08:00,
2013-06-19 14:13:00,69.1,37.2,30.02,NNW,347,2.0,2.0,31,0.00,CLR,,0.00,WeatherDisplay:10.37,2013-06-19 18:13:00,
2013-06-19 14:18:00,66.4,34.8,30.02,NNW,348,0.0,0.0,31,0.00,CLR,,0.00,WeatherDisplay:10.37,2013-06-19 18:18:00,
2013-06-19 14:23:00,68.5,36.7,30.02,NNW,327,3.5,3.5,31,0.00,CLR,,0.00,WeatherDisplay:10.37,2013-06-19 18:23:00,
2013-06-19 14:28:00,66.6,35.0,30.02,NNW,328,3.0,3.0,31,0.00,CLR,,0.00,WeatherDisplay:10.37,2013-06-19 18:28:00,
2013-06-19 14:33:00,67.8,36.0,30.02,NNW,329,1.1,0.0,31,0.00,CLR,,0.00,WeatherDisplay:10.37,2013-06-19 18:33:00,
2013-06-19 14:38:00,68.4,36.6,30.02,NNW,329,2.3,2.3,31,0.00,CLR,,0.00,WeatherDisplay:10.37,2013-06-19 18:38:00,
2013-06-19 14:43:00,68.8,36.9,30.02,NNW,329,2.3,2.3,31,0.00,CLR,,0.00,WeatherDisplay:10.37,2013-06-19 18:43:00,
2013-06-19 14:48:00,68.7,36.8,30.02,NNW,329,1.1,1.1,31,0.00,CLR,,0.00,WeatherDisplay:10.37,2013-06-19 18:48:00,
2013-06-19 14:53:00,66.7,35.1,30.02,NNW,328,3.5,3.5,31,0.00,CLR,,0.00,WeatherDisplay:10.37,2013-06-19 18:53:00,
2013-06-19 14:58:00,68.2,36.4,30.02,NNW,328,2.3,2.3,31,0.00,CLR,,0.00,WeatherDisplay:10.37,2013-06-19 18:58:00,
2013-06-19 15:03:00,68.4,36.6,30.02,NNW,328,2.3,2.3,31,0.00,CLR,,0.00,WeatherDisplay:10.37,2013-06-19 19:03:00,
2013-06-19 15:08:00,67.8,36.0,30.02,NNW,328,1.1,1.1,31,0.00,CLR,,0.00,WeatherDisplay:10.37,2013-06-19 19:08:00,
2013-06-19 15:13:00,67.9,34.4,30.02,NNW,328,2.3,2.3,29,0.00,FEW,,0.00,WeatherDisplay:10.37,2013-06-19 19:13:00,
2013-06-19 15:18:00,67.6,34.2,30.02,NNW,328,3.5,3.5,29,0.00,FEW,,0.00,WeatherDisplay:10.37,2013-06-19 19:18:00,
2013-06-19 15:23:00,68.0,34.5,30.02,NNW,328,3.5,3.5,29,0.00,FEW,,0.00,WeatherDisplay:10.37,2013-06-19 19:23:00,
2013-06-19 15:28:00,68.7,35.1,30.02,NNW,329,2.3,2.3,29,0.00,FEW,,0.00,WeatherDisplay:10.37,2013-06-19 19:28:00,
2013-06-19 15:33:00,67.7,34.3,30.02,NNW,328,3.5,3.5,29,0.00,FEW,,0.00,WeatherDisplay:10.37,2013-06-19 19:33:00,
2013-06-19 15:38:00,68.6,35.1,30.02,NNW,328,2.3,2.3,29,0.00,FEW,,0.00,WeatherDisplay:10.37,2013-06-19 19:38:00,
2013-06-19 15:43:00,69.5,35.8,30.02,NNW,328,2.3,2.3,29,0.00,FEW,,0.00,WeatherDisplay:10.37,2013-06-19 19:43:00,
2013-06-19 15:48:00,68.1,34.6,30.02,NNW,329,1.1,1.1,29,0.00,FEW,,0.00,WeatherDisplay:10.37,2013-06-19 19:48:00,
2013-06-19 15:53:00,68.6,35.1,30.02,NNW,328,3.0,3.0,29,0.00,FEW,,0.00,WeatherDisplay:10.37,2013-06-19 19:53:00,
2013-06-19 15:58:00,68.4,34.9,30.02,NNW,329,2.3,2.3,29,0.00,FEW,,0.00,WeatherDisplay:10.37,2013-06-19 19:58:00,
2013-06-19 16:03:00,68.9,36.2,30.03,NNW,328,2.3,2.3,30,0.00,CLR,,0.00,WeatherDisplay:10.37,2013-06-19 20:03:00,
2013-06-19 16:08:00,68.4,35.7,30.03,NNW,328,2.3,2.3,30,0.00,CLR,,0.00,WeatherDisplay:10.37,2013-06-19 20:08:00,
2013-06-19 16:13:00,68.3,35.6,30.03,NNW,329,3.5,3.5,30,0.00,CLR,,0.00,WeatherDisplay:10.37,2013-06-19 20:13:00,
2013-06-19 16:18:00,68.1,35.5,30.03,NNW,329,2.0,2.0,30,0.00,CLR,,0.00,WeatherDisplay:10.37,2013-06-19 20:18:00,
2013-06-19 16:23:00,68.1,35.5,30.03,NNW,328,3.5,3.5,30,0.00,CLR,,0.00,WeatherDisplay:10.37,2013-06-19 20:23:00,
2013-06-19 16:28:00,68.0,35.4,30.03,NNW,328,2.3,2.3,30,0.00,CLR,,0.00,WeatherDisplay:10.37,2013-06-19 20:28:00,
2013-06-19 16:33:00,68.4,35.7,30.03,NNW,328,2.3,2.3,30,0.00,CLR,,0.00,WeatherDisplay:10.37,2013-06-19 20:33:00,
2013-06-19 16:38:00,68.2,35.6,30.03,NNW,328,1.1,0.0,30,0.00,CLR,,0.00,WeatherDisplay:10.37,2013-06-19 20:38:00,
2013-06-19 16:43:00,68.0,35.4,30.03,NNW,328,3.5,3.5,30,0.00,CLR,,0.00,WeatherDisplay:10.37,2013-06-19 20:43:00,
2013-06-19 16:48:00,68.3,35.6,30.03,NNW,328,1.1,1.1,30,0.00,CLR,,0.00,WeatherDisplay:10.37,2013-06-19 20:48:00,
2013-06-19 16:53:00,68.4,35.7,30.03,NNW,328,3.0,3.0,30,0.00,CLR,,0.00,WeatherDisplay:10.37,2013-06-19 20:53:00,
2013-06-19 16:58:00,68.2,35.6,30.03,NNW,327,3.5,3.5,30,0.00,CLR,,0.00,WeatherDisplay:10.37,2013-06-19 20:58:00,
2013-06-19 17:03:00,67.8,35.2,30.03,NNW,327,3.5,3.5,30,0.00,CLR,,0.00,WeatherDisplay:10.37,2013-06-19 21:03:00,
2013-06-19 17:08:00,68.2,35.6,30.03,NNW,327,3.5,3.5,30,0.00,CLR,,0.00,WeatherDisplay:10.37,2013-06-19 21:08:00,
2013-06-19 17:13:00,67.9,35.3,30.03,NNW,327,2.3,2.3,30,0.00,FEW,,0.00,WeatherDisplay:10.37,2013-06-19 21:13:00,
2013-06-19 17:18:00,68.0,35.4,30.03,NNW,327,2.3,2.3,30,0.00,FEW,,0.00,WeatherDisplay:10.37,2013-06-19 21:18:00,
2013-06-19 17:23:00,72.9,39.6,30.03,NW,326,3.0,3.0,30,0.00,FEW,,0.00,WeatherDisplay:10.37,2013-06-19 21:23:00,
2013-06-19 17:28:00,68.8,36.1,30.03,NW,326,2.3,2.3,30,0.00,FEW,,0.00,WeatherDisplay:10.37,2013-06-19 21:28:00,
2013-06-19 17:33:00,68.1,35.5,30.03,NW,326,2.3,2.3,30,0.00,FEW,,0.00,WeatherDisplay:10.37,2013-06-19 21:33:00,
2013-06-19 17:38:00,68.4,35.7,30.03,NW,326,2.0,2.0,30,0.00,FEW,,0.00,WeatherDisplay:10.37,2013-06-19 21:38:00,
2013-06-19 17:43:00,67.9,35.3,30.03,NW,326,1.1,1.1,30,0.00,FEW,,0.00,WeatherDisplay:10.37,2013-06-19 21:43:00,
2013-06-19 17:48:00,68.2,35.6,30.03,NW,326,2.3,2.3,30,0.00,FEW,,0.00,WeatherDisplay:10.37,2013-06-19 21:48:00,
2013-06-19 17:53:00,67.9,35.3,30.03,NW,326,3.5,3.5,30,0.00,FEW,,0.00,WeatherDisplay:10.37,2013-06-19 21:53:00,
2013-06-19 17:58:00,67.9,35.3,30.03,NW,326,2.3,2.3,30,0.00,FEW,,0.00,WeatherDisplay:10.37,2013-06-19 21:58:00,
2013-06-19 18:03:00,67.7,35.1,30.03,NNW,327,2.3,2.3,30,0.00,FEW,,0.00,WeatherDisplay:10.37,2013-06-19 22:03:00,
2013-06-19 18:08:00,67.5,35.0,30.03,NW,326,3.5,3.5,30,0.00,FEW,,0.00,WeatherDisplay:10.37,2013-06-19 22:08:00,
2013-06-19 18:13:00,67.4,34.9,30.03,NW,326,3.5,3.5,30,0.00,SCT,,0.00,WeatherDisplay:10.37,2013-06-19 22:13:00,
2013-06-19 18:18:00,67.8,35.2,30.03,NW,326,2.3,2.3,30,0.00,SCT,,0.00,WeatherDisplay:10.37,2013-06-19 22:18:00,
2013-06-19 18:23:00,67.5,35.0,30.03,NW,326,2.3,2.3,30,0.00,SCT,,0.00,WeatherDisplay:10.37,2013-06-19 22:23:00,
2013-06-19 18:28:00,67.6,35.0,30.03,NW,326,3.5,3.5,30,0.00,SCT,,0.00,WeatherDisplay:10.37,2013-06-19 22:28:00,
2013-06-19 18:33:00,67.2,34.7,30.03,NW,326,2.3,2.3,30,0.00,SCT,,0.00,WeatherDisplay:10.37,2013-06-19 22:33:00,
2013-06-19 18:38:00,67.0,34.5,30.03,NW,326,2.3,2.3,30,0.00,SCT,,0.00,WeatherDisplay:10.37,2013-06-19 22:38:00,
2013-06-19 18:43:00,67.0,34.5,30.03,NW,326,2.3,2.3,30,0.00,SCT,,0.00,WeatherDisplay:10.37,2013-06-19 22:43:00,
2013-06-19 18:48:00,67.0,34.5,30.03,NW,326,2.3,2.3,30,0.00,SCT,,0.00,WeatherDisplay:10.37,2013-06-19 22:48:00,
2013-06-19 18:53:00,66.9,34.4,30.03,NW,326,2.3,2.3,30,0.00,SCT,,0.00,WeatherDisplay:10.37,2013-06-19 22:53:00,
2013-06-19 18:58:00,66.6,34.2,30.03,NW,326,2.3,2.3,30,0.00,SCT,,0.00,WeatherDisplay:10.37,2013-06-19 22:58:00,
2013-06-19 19:03:00,66.5,34.1,30.03,NW,326,2.3,2.3,30,0.00,SCT,,0.00,WeatherDisplay:10.37,2013-06-19 23:03:00,
2013-06-19 19:08:00,66.2,33.8,30.03,NW,326,2.3,2.3,30,0.00,SCT,,0.00,WeatherDisplay:10.37,2013-06-19 23:08:00,
2013-06-19 19:13:00,66.2,33.8,30.05,NW,326,2.3,2.3,30,0.00,CLR,,0.00,WeatherDisplay:10.37,2013-06-19 23:13:00,
2013-06-19 19:18:00,65.8,33.5,30.05,NNW,327,2.3,2.3,30,0.00,CLR,,0.00,WeatherDisplay:10.37,2013-06-19 23:18:00,
2013-06-19 19:23:00,65.7,33.4,30.05,NW,326,1.1,1.1,30,0.00,CLR,,0.00,WeatherDisplay:10.37,2013-06-19 23:23:00,
2013-06-19 19:28:00,65.4,33.1,30.05,NW,326,1.1,1.1,30,0.00,CLR,,0.00,WeatherDisplay:10.37,2013-06-19 23:28:00,
2013-06-19 19:33:00,65.2,33.0,30.05,NW,326,2.3,2.3,30,0.00,CLR,,0.00,WeatherDisplay:10.37,2013-06-19 23:33:00,
2013-06-19 19:38:00,65.0,32.8,30.05,NW,326,1.1,1.1,30,0.00,CLR,,0.00,WeatherDisplay:10.37,2013-06-19 23:38:00,
2013-06-19 19:43:00,64.6,32.4,30.05,NW,326,2.3,2.3,30,0.00,CLR,,0.00,WeatherDisplay:10.37,2013-06-19 23:43:00,
2013-06-19 19:48:00,64.3,32.2,30.05,NW,326,2.3,2.3,30,0.00,CLR,,0.00,WeatherDisplay:10.37,2013-06-19 23:48:00,
2013-06-19 19:53:00,64.0,31.9,30.05,NW,326,2.3,2.3,30,0.00,CLR,,0.00,WeatherDisplay:10.37,2013-06-19 23:53:00,
2013-06-19 19:58:00,63.4,31.4,30.05,NW,326,1.1,1.1,30,0.00,CLR,,0.00,WeatherDisplay:10.37,2013-06-19 23:58:00,
2013-06-19 20:03:00,63.0,31.0,30.05,NW,326,1.1,1.1,30,0.00,CLR,,0.00,WeatherDisplay:10.37,2013-06-20 00:03:00,
2013-06-19 20:08:00,62.3,30.4,30.05,NW,326,1.1,1.1,30,0.00,CLR,,0.00,WeatherDisplay:10.37,2013-06-20 00:08:00,
2013-06-19 20:13:00,62.0,37.4,30.06,NW,326,1.1,1.1,40,0.00,CLR,,0.00,WeatherDisplay:10.37,2013-06-20 00:13:00,
2013-06-19 20:18:00,61.6,37.0,30.06,NW,326,1.1,1.1,40,0.00,CLR,,0.00,WeatherDisplay:10.37,2013-06-20 00:18:00,
2013-06-19 20:23:00,61.2,36.7,30.06,NW,326,0.0,0.0,40,0.00,CLR,,0.00,WeatherDisplay:10.37,2013-06-20 00:23:00,
2013-06-19 20:28:00,60.8,36.3,30.06,NW,326,0.0,0.0,40,0.00,CLR,,0.00,WeatherDisplay:10.37,2013-06-20 00:28:00,
2013-06-19 20:33:00,59.5,35.1,30.06,NW,326,0.0,0.0,40,0.00,CLR,,0.00,WeatherDisplay:10.37,2013-06-20 00:33:00,
2013-06-19 20:38:00,58.7,34.4,30.06,NW,326,0.0,0.0,40,0.00,CLR,,0.00,WeatherDisplay:10.37,2013-06-20 00:38:00,
2013-06-19 20:43:00,58.5,34.2,30.06,NW,326,0.0,0.0,40,0.00,CLR,,0.00,WeatherDisplay:10.37,2013-06-20 00:43:00,
2013-06-19 20:48:00,57.9,33.7,30.06,NNW,327,0.0,0.0,40,0.00,CLR,,0.00,WeatherDisplay:10.37,2013-06-20 00:48:00,
2013-06-19 20:53:00,57.4,33.3,30.06,NW,326,0.0,0.0,40,0.00,CLR,,0.00,WeatherDisplay:10.37,2013-06-20 00:53:00,
2013-06-19 20:58:00,57.2,33.1,30.06,NW,326,0.0,0.0,40,0.00,CLR,,0.00,WeatherDisplay:10.37,2013-06-20 00:58:00,
2013-06-19 21:03:00,57.0,39.0,30.09,NW,326,0.0,0.0,51,0.00,CLR,,0.00,WeatherDisplay:10.37,2013-06-20 01:03:00,
2013-06-19 21:08:00,56.5,38.6,30.09,NNW,327,0.0,0.0,51,0.00,CLR,,0.00,WeatherDisplay:10.37,2013-06-20 01:08:00,
2013-06-19 21:13:00,56.2,38.3,30.09,NW,326,0.0,0.0,51,0.00,CLR,,0.00,WeatherDisplay:10.37,2013-06-20 01:13:00,
2013-06-19 21:18:00,55.6,37.7,30.09,NW,326,0.0,0.0,51,0.00,CLR,,0.00,WeatherDisplay:10.37,2013-06-20 01:18:00,
2013-06-19 21:23:00,55.7,37.8,30.09,NW,326,0.0,0.0,51,0.00,CLR,,0.00,WeatherDisplay:10.37,2013-06-20 01:23:00,
2013-06-19 21:28:00,55.0,37.2,30.09,NW,326,0.0,0.0,51,0.00,CLR,,0.00,WeatherDisplay:10.37,2013-06-20 01:28:00,
2013-06-19 21:33:00,54.7,36.9,30.09,NW,326,0.0,0.0,51,0.00,CLR,,0.00,WeatherDisplay:10.37,2013-06-20 01:33:00,
2013-06-19 21:38:00,54.8,37.0,30.09,NW,326,0.0,0.0,51,0.00,CLR,,0.00,WeatherDisplay:10.37,2013-06-20 01:38:00,
2013-06-19 21:43:00,54.6,36.8,30.09,NW,326,0.0,0.0,51,0.00,CLR,,0.00,WeatherDisplay:10.37,2013-06-20 01:43:00,
2013-06-19 21:48:00,54.1,36.4,30.09,NW,326,0.0,0.0,51,0.00,CLR,,0.00,WeatherDisplay:10.37,2013-06-20 01:48:00,
2013-06-19 21:53:00,53.7,36.0,30.09,NW,326,0.0,0.0,51,0.00,CLR,,0.00,WeatherDisplay:10.37,2013-06-20 01:53:00,
2013-06-19 21:58:00,53.8,36.1,30.09,NNW,327,0.0,0.0,51,0.00,CLR,,0.00,WeatherDisplay:10.37,2013-06-20 01:58:00,
2013-06-19 22:03:00,53.5,35.8,30.09,NW,326,0.0,0.0,51,0.00,CLR,,0.00,WeatherDisplay:10.37,2013-06-20 02:03:00,
2013-06-19 22:08:00,53.2,35.5,30.09,NW,326,0.0,0.0,51,0.00,CLR,,0.00,WeatherDisplay:10.37,2013-06-20 02:08:00,
2013-06-19 22:13:00,53.0,46.7,30.12,NW,326,0.0,0.0,79,0.00,CLR,,0.00,WeatherDisplay:10.37,2013-06-20 02:13:00,
2013-06-19 22:18:00,52.5,46.2,30.12,NW,326,0.0,0.0,79,0.00,CLR,,0.00,WeatherDisplay:10.37,2013-06-20 02:18:00,
2013-06-19 22:23:00,52.5,46.2,30.12,NNW,327,0.0,0.0,79,0.00,CLR,,0.00,WeatherDisplay:10.37,2013-06-20 02:23:00,
2013-06-19 22:28:00,52.6,46.3,30.12,NW,326,0.0,0.0,79,0.00,CLR,,0.00,WeatherDisplay:10.37,2013-06-20 02:28:00,
2013-06-19 22:33:00,51.9,45.6,30.12,NW,326,0.0,0.0,79,0.00,CLR,,0.00,WeatherDisplay:10.37,2013-06-20 02:33:00,
2013-06-19 22:38:00,52.0,45.7,30.12,NW,326,0.0,0.0,79,0.00,CLR,,0.00,WeatherDisplay:10.37,2013-06-20 02:38:00,
2013-06-19 22:43:00,51.5,45.2,30.12,NW,326,0.0,0.0,79,0.00,CLR,,0.00,WeatherDisplay:10.37,2013-06-20 02:43:00,
2013-06-19 22:48:00,51.0,44.7,30.12,NW,326,0.0,0.0,79,0.00,CLR,,0.00,WeatherDisplay:10.37,2013-06-20 02:48:00,
2013-06-19 22:53:00,50.9,44.6,30.12,NW,326,0.0,0.0,79,0.00,CLR,,0.00,WeatherDisplay:10.37,2013-06-20 02:53:00,
2013-06-19 22:58:00,51.1,44.8,30.12,NNW,327,0.0,0.0,79,0.00,CLR,,0.00,WeatherDisplay:10.37,2013-06-20 02:58:00,
2013-06-19 23:03:00,50.6,47.5,30.14,NW,326,0.0,0.0,89,0.00,CLR,,0.00,WeatherDisplay:10.37,2013-06-20 03:03:00,
2013-06-19 23:08:00,50.4,47.3,30.14,NW,326,0.0,0.0,89,0.00,CLR,,0.00,WeatherDisplay:10.37,2013-06-20 03:08:00,
2013-06-19 23:13:00,50.0,46.9,30.14,NW,326,0.0,0.0,89,0.00,CLR,,0.00,WeatherDisplay:10.37,2013-06-20 03:13:00,
2013-06-19 23:18:00,49.7,46.6,30.14,NW,326,0.0,0.0,89,0.00,CLR,,0.00,WeatherDisplay:10.37,2013-06-20 03:18:00,
2013-06-19 23:23:00,49.3,46.2,30.14,NW,326,0.0,0.0,89,0.00,CLR,,0.00,WeatherDisplay:10.37,2013-06-20 03:23:00,
2013-06-19 23:28:00,48.8,45.7,30.14,NW,326,0.0,0.0,89,0.00,CLR,,0.00,WeatherDisplay:10.37,2013-06-20 03:28:00,
2013-06-19 23:33:00,49.0,45.9,30.14,NW,326,0.0,0.0,89,0.00,CLR,,0.00,WeatherDisplay:10.37,2013-06-20 03:33:00,
2013-06-19 23:38:00,48.7,45.6,30.14,NW,326,0.0,0.0,89,0.00,CLR,,0.00,WeatherDisplay:10.37,2013-06-20 03:38:00,
2013-06-19 23:43:00,48.2,45.1,30.14,NW,326,0.0,0.0,89,0.00,CLR,,0.00,WeatherDisplay:10.37,2013-06-20 03:43:00,
2013-06-19 23:48:00,48.5,45.4,30.14,NW,326,0.0,0.0,89,0.00,CLR,,0.00,WeatherDisplay:10.37,2013-06-20 03:48:00,
2013-06-19 23:53:00,48.7,45.6,30.14,NW,326,0.0,0.0,89,0.00,CLR,,0.00,WeatherDisplay:10.37,2013-06-20 03:53:00,
2013-06-19 23:58:00,48.7,45.6,30.14,NW,326,0.0,0.0,89,0.00,CLR,,0.00,WeatherDisplay:10.37,2013-06-20 03:58:00,